Weather History for Cairo, Egypt

Change the Weather History Date:

Wednesday, October 17, 2012

  Actual Average Record
Temperature  
Mean Temperature 82 °F -  
Max Temperature 93 °F 78 °F 93 °F (2010)
Min Temperature 71 °F 60 °F 62 °F (1996)
Cooling Degree Days 17    
Growing Degree Days 32 (Base 50)    
Moisture  
Dew Point 68 °F    
Average Humidity 67    
Maximum Humidity 94    
Minimum Humidity 30    
Precipitation  
Precipitation 0.00 in 0.00 in - ()
Sea Level Pressure  
Sea Level Pressure 29.95 in    
Wind  
Wind Speed 13 mph ()    
Max Wind Speed 20 mph    
Max Gust Speed -    
Visibility 6.1 miles    
Events      
Averages and records for this station are not official NWS values.
T = Trace of Precipitation, MM = Missing Value Source: Averaged Metar Reports

Daily Weather History Graph

Daily Weather History Graph

Search for Another Location

Airport:

Trip Planner

Search our weather history database for the weather conditions in past years. The results will help you decide how hot, cold, wet, or windy it might be!

Date:

Astronomy

Oct. 17, 2012 Rise Set
Actual Time 5:57 AM EET 5:21 PM EET
Civil Twilight 5:33 AM EET 5:45 PM EET
Nautical Twilight 5:05 AM EET 6:13 PM EET
Astronomical Twilight 4:37 AM EET 6:40 PM EET
Moon 7:56 AM EET (10/17) 6:51 PM EET (10/17)
Length of Visible Light 12h 11m
Length of Day
11h 23m
Waxing Crescent, 5% of the Moon is Illuminated
Oct 17
Waxing Crescent
Oct 22
First Quarter
Oct 29
Full
Nov 7
Last Quarter
Nov 14
New

Hourly Weather History & Observations

Time (EET) Temp. Heat Index Dew Point Humidity Pressure Visibility Wind Dir Wind Speed Gust Speed Precip Events Conditions
12:00 AM 77.0 °F - 71.6 °F 83% 29.98 in - NNE 12.7 mph - N/A   Clear
12:30 AM 77.0 °F - 71.6 °F 83% 29.98 in - ENE 16.1 mph - N/A   Clear
1:00 AM 75.2 °F - 71.6 °F 89% 29.98 in - NE 13.8 mph - N/A   Clear
1:30 AM 75.2 °F - 71.6 °F 89% 29.98 in - NE 13.8 mph - N/A   Clear
2:00 AM 76 °F - 71 °F 81% 29.96 in 6 mi ENE 16.1 mph - -   Partly Cloudy
2:00 AM 75.2 °F - 71.6 °F 89% 29.95 in - ENE 16.1 mph - N/A   Clear
2:30 AM 75.2 °F - 71.6 °F 89% 29.95 in - ENE 16.1 mph - N/A   Clear
3:00 AM 75.2 °F - 71.6 °F 89% 29.95 in - ENE 11.5 mph - N/A   Clear
3:30 AM 75.2 °F - 71.6 °F 89% 29.95 in - ENE 11.5 mph - N/A   Clear
4:00 AM 75.2 °F - 69.8 °F 83% 29.95 in - NNW 8.1 mph - N/A   Clear
4:30 AM 75.2 °F - 69.8 °F 83% 29.95 in - NNW 8.1 mph - N/A   Clear
5:00 AM 75.2 °F - 71.6 °F 89% 29.95 in - North 11.5 mph - N/A   Clear
5:30 AM 75.2 °F - 71.6 °F 89% 29.95 in - North 9.2 mph - N/A   Clear
6:00 AM 73.4 °F - 71.6 °F 94% 29.98 in - North 10.4 mph - N/A   Clear
6:30 AM 75.2 °F - 71.6 °F 89% 29.98 in 6.2 mi NNE 13.8 mph - N/A   Scattered Clouds
7:00 AM 75.2 °F - 71.6 °F 89% 29.98 in 6.2 mi NNE 13.8 mph - N/A   Scattered Clouds
7:30 AM 75.2 °F - 71.6 °F 89% 29.98 in 6.2 mi NNE 13.8 mph - N/A   Scattered Clouds
8:00 AM 77 °F - 73 °F 83% 29.99 in 6 mi NNE 15.0 mph - -   Mostly Cloudy
8:00 AM 77.0 °F - 73.4 °F 89% 29.98 in 6.2 mi NNE 15.0 mph - N/A   Mostly Cloudy
8:30 AM 77.0 °F - 71.6 °F 83% 29.98 in 6.2 mi NNE 17.3 mph - N/A   Mostly Cloudy
9:00 AM 78.8 °F - 71.6 °F 78% 29.98 in 6.2 mi NNE 16.1 mph - N/A   Scattered Clouds
9:30 AM 80.6 °F 84.6 °F 71.6 °F 74% 29.98 in 6.2 mi North 16.1 mph - N/A   Scattered Clouds
10:00 AM 82.4 °F 87.2 °F 71.6 °F 70% 29.98 in 6.2 mi NNE 18.4 mph - N/A   Scattered Clouds
10:30 AM 84.2 °F 88.4 °F 69.8 °F 62% 29.98 in 6.2 mi NE 19.6 mph - N/A   Scattered Clouds
11:00 AM 86.0 °F 90.4 °F 69.8 °F 58% 29.98 in 6.2 mi NE 18.4 mph - N/A   Scattered Clouds
11:30 AM 87.8 °F 91.4 °F 68.0 °F 52% 29.95 in 6.2 mi NE 17.3 mph - N/A   Scattered Clouds
12:00 PM 89.6 °F 91.1 °F 64.4 °F 43% 29.95 in 6.2 mi NNE 18.4 mph - N/A   Scattered Clouds
12:30 PM 89.6 °F 90.1 °F 62.6 °F 40% 29.95 in - NE 15.0 mph - N/A   Clear
1:30 PM 91.4 °F 92.1 °F 62.6 °F 38% 29.92 in - NNE 16.1 mph - N/A   Clear
2:00 PM 94 °F - 66 °F 30% 29.92 in 6 mi NNE 13.8 mph - -   Clear
2:00 PM 93.2 °F 96.2 °F 66.2 °F 41% 29.92 in - NNE 13.8 mph - N/A   Clear
2:30 PM 93.2 °F 94.9 °F 64.4 °F 38% 29.92 in - NNE 17.3 mph - N/A   Clear
3:00 PM 91.4 °F 92.1 °F 62.6 °F 38% 29.92 in - NNE 11.5 mph - N/A   Clear
3:30 PM 91.4 °F 92.1 °F 62.6 °F 38% 29.92 in - NNE 11.5 mph - N/A   Clear
4:00 PM 91.4 °F 91.4 °F 60.8 °F 36% 29.92 in - NNE 18.4 mph - N/A   Clear
4:30 PM 91.4 °F 91.4 °F 60.8 °F 36% 29.89 in - NNE 18.4 mph - N/A   Clear
5:00 PM 91.4 °F 92.1 °F 62.6 °F 38% 29.92 in - NNE 16.1 mph - N/A   Clear
5:30 PM 91.4 °F 92.1 °F 62.6 °F 38% 29.92 in - NNE 16.1 mph - N/A   Clear
6:00 PM 86.0 °F 86.6 °F 62.6 °F 45% 29.92 in - NNE 15.0 mph - N/A   Clear
6:30 PM 86.0 °F 86.6 °F 62.6 °F 45% 29.92 in - NNE 15.0 mph - N/A   Clear
7:00 PM 82.4 °F 83.9 °F 64.4 °F 54% 29.95 in - NNE 15.0 mph - N/A   Clear
7:30 PM 82.4 °F 83.9 °F 64.4 °F 54% 29.95 in - NNE 15.0 mph - N/A   Clear
8:00 PM 80 °F - 67 °F 57% 29.96 in 6 mi NNE 12.7 mph - -  
8:00 PM 80.6 °F 83.2 °F 68.0 °F 65% 29.95 in - NNE 12.7 mph - N/A   Clear
8:30 PM 80.6 °F 83.2 °F 68.0 °F 65% 29.95 in - NNE 12.7 mph - N/A   Clear
9:00 PM 77.0 °F - 69.8 °F 78% 29.98 in - NNE 11.5 mph - N/A   Clear
9:30 PM 77.0 °F - 69.8 °F 78% 29.95 in - NE 11.5 mph - N/A   Clear
10:00 PM 77.0 °F - 68.0 °F 74% 29.95 in - ENE 12.7 mph - N/A   Clear
10:30 PM 77.0 °F - 68.0 °F 74% 29.95 in - ENE 12.7 mph - N/A   Clear
11:00 PM 75.2 °F - 68.0 °F 78% 29.95 in - ENE 11.5 mph - N/A   Clear
11:30 PM 75.2 °F - 68.0 °F 78% 29.95 in - NNE 10.4 mph - N/A   Clear